Location: Adrasan
(36.3319°N, 30.4314°E)
Time: 11:53:35
(UTC+00:00)

Cosmos 1603 - Pass Details

Date: 09 December 2023
Orbit: 832 x 857 km, 71.0° (Epoch: 20 February)

Event Time Altitude Azimuth Distance (km) Brightness Sun altitude
Rises 15:38:41 0° 335° (NNW) 3,409 6.9 -11.0°
Reaches altitude 10° 15:41:09 10° 333° (NNW) 2,467 6.2 -11.5°
Maximum altitude 15:46:46 70° 251° (WSW) 893 4.1 -12.6°
Drops below altitude 10° 15:52:19 10° 169° (S) 2,437 6.2 -13.6°
Sets 15:54:45 0° 167° (SSE) 3,364 6.9 -14.1°
